CO-58
1 28895U 05043F 09225.22985064 -.00000031 00000-0 30969-5 0 3685
2 28895 098.0503 114.2267 0018118 166.1198 194.0475 14.59787041202058
FALCON
1 30776U 07006E 09225.88054954 .00000229 00000-0 19579-4 0 6341
2 30776 035.4333 109.3645 0001149 001.4121 358.6598 15.03284237133789
MAST
1 31126U 07012K 09225.17199067 -.00000007 00000-0 86172-5 0 6614
2 31126 097.9837 277.3560 0095652 102.7777 258.4144 14.53511294123319
CAPE1
1 31130U 07012P 09225.12925670 .00000064 00000-0 25134-4 0 6714
2 31130 097.9852 275.3725 0103752 108.8336 252.4144 14.52079248122951
COMPASS
1 32787U 08021E 09225.23606026 .00000106 00000-0 20288-4 0 4357
2 32787 097.9388 288.5683 0015242 203.6241 156.4266 14.81639524 69890
AAUSAT2
1 32788U 08021F 09224.72648622 -.00000051 00000-0 34415-6 0 04325
2 32788 097.9375 288.1290 0014743 206.6358 153.4091 14.81762311069821
DO-64
1 32789U 08021G 09224.74837861 .00000520 00000-0 72573-4 0 4452
2 32789 097.9438 288.3513 0015051 204.2883 155.7621 14.81765560 69825
CO-66
1 32791U 08021J 09225.21799736 .00000337 00000-0 49826-4 0 4277
2 32791 097.9395 288.5825 0015477 201.9765 158.0776 14.81465260 69857
RS-30
1 32953U 08025A 09224.53254200 .00000010 00000-0 00000 0 0 3786
2 32953 082.4970 221.5708 0020599 057.7030 302.6044 12.43002858 55390
TACSAT-3
1 35001U 09028A 09225.38195388 .00001271 00000-0 37795-4 0 718
2 35001 040.4569 258.5845 0024776 229.7703 130.0939 15.39031975 13161
PHARMSAT
1 35002U 09028B 09225.40413055 .00001234 00000-0 35972-4 0 709
2 35002 040.4693 257.9486 0027800 233.8528 125.9712 15.39789577 13166
HAWKSAT1
1 35003U 09028C 09225.45507469 .00001415 00000-0 34017-4 0 742
2 35003 040.4701 257.4605 0028077 237.0031 122.8593 15.40018351 13189
CP6
1 35004U 09028D 09225.24760044 .00006371 00000-0 15708-3 0 673
2 35004 040.4624 258.4621 0028642 235.0605 124.7927 15.40445144 13148
AEROCUB3
1 35005U 09028E 09225.12791088 .00002669 00000-0 69806-4 0 678
2 35005 040.4767 259.4042 0027762 233.1763 126.6510 15.40237341 13126
DRAGNSAT
1 35690U 09038B 09225.49914637 .00019600 00000-0 98332-4 0 158
2 35690 051.6400 011.8279 0004396 127.7077 232.4857 15.80989098 2215
